This is the latest recevied weather packets stored in our database for station/object K5DLF-13. If no packets are shown the sender has not sent any weather packets the latest 10 day(s).
| Time | Temp. | Humidity | Pressure | Rain* | Wind** | Luminosity | Snow |
|---|---|---|---|---|---|---|---|
| 1777331374 | 28.33° C | 81% | 1008.3 hPa | 0 mm | - | 127 W/m² | - |
| 1777331074 | 28.33° C | 81% | 1008.4 hPa | 0 mm | - | 100 W/m² | - |
| 1777330774 | 28.89° C | 81% | 1008.4 hPa | 0 mm | - | 158 W/m² | - |
| 1777330474 | 28.89° C | 81% | 1008.2 hPa | 0 mm | - | 290 W/m² | - |
| 1777330174 | 28.89° C | 80% | 1008.2 hPa | 0 mm | - | 141 W/m² | - |
| 1777329874 | 28.89° C | 80% | 1008.1 hPa | 0 mm | - | 141 W/m² | - |
| 1777329574 | 28.89° C | 79% | 1008.3 hPa | 0 mm | - | 367 W/m² | - |
| 1777329274 | 28.89° C | 79% | 1008.3 hPa | 0 mm | - | 185 W/m² | - |
| 1777328974 | 29.44° C | 79% | 1008.2 hPa | 0 mm | - | 406 W/m² | - |
| 1777328674 | 29.44° C | 79% | 1008.3 hPa | 0 mm | - | 246 W/m² | - |
| 1777328374 | 29.44° C | 80% | 1008.2 hPa | 0 mm | - | 230 W/m² | - |
| 1777328074 | 29.44° C | 79% | 1008.2 hPa | 0 mm | - | 158 W/m² | - |
| 1777327774 | 29.44° C | 79% | 1008.1 hPa | 0 mm | - | 121 W/m² | - |
| 1777327474 | 29.44° C | 79% | 1008.1 hPa | 0 mm | - | 236 W/m² | - |
| 1777327174 | 29.44° C | 78% | 1008.2 hPa | 0 mm | - | 394 W/m² | - |
| 1777326874 | 29.44° C | 79% | 1008.1 hPa | 0 mm | - | 438 W/m² | - |
| 1777326574 | 29.44° C | 78% | 1008.1 hPa | 0 mm | - | 555 W/m² | - |
| 1777326274 | 30° C | 78% | 1008.2 hPa | 0 mm | - | 555 W/m² | - |
| 1777325974 | 30° C | 78% | 1008.1 hPa | 0 mm | - | 190 W/m² | - |
| 1777325674 | 30° C | 78% | 1008.1 hPa | 0 mm | - | 596 W/m² | - |
| 1777325374 | 30° C | 77% | 1008.2 hPa | 0 mm | - | 635 W/m² | - |
| 1777325074 | 30° C | 78% | 1008.1 hPa | 0 mm | - | 642 W/m² | - |
| 1777324774 | 30° C | 78% | 1008.2 hPa | 0 mm | - | 619 W/m² | - |
| 1777324474 | 30° C | 78% | 1008.2 hPa | 0 mm | - | 640 W/m² | - |
| 1777324174 | 30.56° C | 77% | 1008.2 hPa | 0 mm | - | 728 W/m² | - |
* Rain latest hour (hover to see other rain measurements)
** Current wind speed in m/s (hover to see current wind gust speed)